Flag for Canada

Past Weather in 45°44'45"N, 73°38'14"W, Canada — Yesterday and Last 2 Weeks

Now
41 °F

Sunny.


Feels Like: 41 °F
Forecast: 49 / 33 °F
Wind: No wind

Location: Montreal - Pierre Elliot Trudeau International Aiport

Current Time: Apr 7, 2020 at 10:24:02 am

Latest Report: Apr 7, 2020 at 9:00 am


Visibility: 30 mi

Pressure: 29.92 "Hg

Humidity: 45%

Dew Point: 21 °F

Location of 45°44'45"N, 73°38'14"WLocation

Past Weather in 45°44'45"N, 73°38'14"W — Graph

°F

45°44'45"N, 73°38'14"W Temperature Yesterday

Maximum temperature yesterday: 55 °F (at 4:00 pm)
Minimum temperature yesterday: 30 °F (at 6:00 am)
Average temperature yesterday: 43 °F

High & Low Weather Summary for the Past Weeks

 TemperatureHumidityPressure
High55 °F (Apr 4, 5:00 pm)100% (Mar 24, 4:00 am)30.45 "Hg (Mar 24, 4:00 am)
Low27 °F (Mar 25, 6:00 am)22% (Apr 6, 6:00 pm)29.67 "Hg (Mar 26, 5:00 pm)
Average40 °F72%30.01 "Hg
* Reported Mar 23 9:00 am — Apr 7 9:00 am, 45°44'45"N, 73°38'14"W. Weather by CustomWeather, © 2020

Note: Actual official high and low records may vary slightly from our data, if they occured in-between our weather recording intervals... More about our weather records

45°44'45"N, 73°38'14"W Weather History for the Previous 24 Hours

Scroll right to see more
 ConditionsComfort  
Time TempWeatherWind HumidityBarometerVisibility
9:00 am
Tue, Apr 7
41 °FSunny.No wind45%29.92 "Hg30 mi
8:00 am37 °FPassing clouds.No wind52%29.92 "Hg30 mi
7:00 am32 °FPassing clouds.2 mph69%29.92 "Hg30 mi
6:00 am32 °FPassing clouds.3 mph64%29.91 "Hg15 mi
5:00 am34 °FClear.5 mph56%29.90 "Hg15 mi
4:00 am36 °FPassing clouds.7 mph56%29.91 "Hg15 mi
3:00 am36 °FPassing clouds.6 mph70%29.92 "Hg15 mi
2:05 am36 °FPassing clouds.2 mph70%29.90 "Hg15 mi
1:00 am36 °FPassing clouds.No wind70%29.91 "Hg15 mi
12:00 am39 °FPassing clouds.5 mph56%29.90 "Hg15 mi
11:00 pm
Mon, Apr 6
43 °FPassing clouds.7 mph49%29.89 "Hg15 mi
10:00 pm43 °FPassing clouds.9 mph53%29.90 "Hg15 mi
9:00 pm45 °FPassing clouds.9 mph42%29.89 "Hg15 mi
8:00 pm50 °FPassing clouds.9 mph30%29.88 "Hg15 mi
7:00 pm52 °FBroken clouds.14 mph28%29.88 "Hg30 mi
6:00 pm54 °FBroken clouds.20 mph22%29.88 "Hg30 mi
5:00 pm55 °FBroken clouds.21 mph23%29.88 "Hg30 mi
4:00 pm55 °FScattered clouds.21 mph24%29.90 "Hg30 mi
3:00 pm54 °FPassing clouds.21 mph26%29.93 "Hg30 mi
2:00 pm52 °FPassing clouds.21 mph32%29.96 "Hg30 mi
1:00 pm52 °FPassing clouds.18 mph32%29.99 "Hg30 mi
12:00 pm50 °FPassing clouds.15 mph40%30.02 "Hg30 mi
11:00 am46 °FPassing clouds.15 mph43%30.05 "Hg30 mi
10:00 am45 °FPassing clouds.13 mph49%30.06 "Hg30 mi
Weather by CustomWeather, © 2020

See weather overview

Advertising